This demonstration page uses our WeatherBlox Daily Observations layout. Learn more.

Left ArrowRight Arrow

Hourly Observations for July 5, 2022

Temp ( °F °C ) Dew Point ( °F °C ) Humidity (%) Winds ( mph kmh ) Pressure ( in mb ) Visibility ( mi km ) Precip ( " mm )
12:15 am 00:15 Clear 79 26.3 69 20.6 71 71 S 6 9 29.97 1015 10 16 0.00 0.00
12:35 am 00:35 Clear 79 25.9 69 20.7 73 73 S 6 9 29.96 1014 10 16 0.00 0.00
12:55 am 00:55 Clear 79 26.2 69 20.8 72 72 S 6 9 29.96 1014 10 16 0.00 0.00
1:15 am 01:15 Clear 80 26.6 69 20.7 70 70 S 7 11 29.95 1014 10 16 0.00 0.00
1:35 am 01:35 Clear 80 26.5 69 20.7 71 71 S 7 11 29.95 1014 10 16 0.00 0.00
1:55 am 01:55 Clear 79 26.3 69 20.7 71 71 S 8 13 29.95 1014 10 16 0.00 0.00
2:15 am 02:15 Clear 79 26.1 69 20.8 73 73 S 8 13 29.94 1014 10 16 0.00 0.00
2:35 am 02:35 Clear 79 26.1 70 21 74 74 S 7 11 29.94 1014 10 16 0.00 0.00
2:55 am 02:55 Clear 79 26.2 70 21 73 73 SSW 9 15 29.94 1014 10 16 0.00 0.00
3:15 am 03:15 Clear 79 26.1 70 21.2 74 74 SSW 6 9 29.94 1014 10 16 0.00 0.00
3:35 am 03:35 Clear 79 26 70 21.3 75 75 SSW 6 9 29.94 1014 10 16 0.00 0.00
3:55 am 03:55 Clear 78 25.7 70 21.3 77 77 SSW 6 9 29.94 1014 10 16 0.00 0.00
4:15 am 04:15 Clear 78 25.5 71 21.5 79 79 SW 5 7 29.95 1014 10 16 0.00 0.00
4:35 am 04:35 Clear 78 25.3 71 21.5 80 80 SSW 3 6 29.96 1015 10 16 0.00 0.00
4:55 am 04:55 Clear 77 25.2 71 21.6 81 81 Calm 29.96 1015 10 16 0.00 0.00
5:15 am 05:15 Clear 77 25 72 22 83 83 Calm 29.96 1015 10 16 0.00 0.00
5:35 am 05:35 Clear 76 24.7 72 22 85 85 SSW 3 6 29.96 1015 10 16 0.00 0.00
5:55 am 05:55 Clear 75 24.1 71 21.8 87 87 Calm 29.97 1015 10 16 0.00 0.00
6:15 am 06:15 Mostly Cloudy 77 24.9 71 21.6 82 82 Calm 29.97 1015 10 16 0.00 0.00
6:35 am 06:35 Mostly Cloudy 76 24.5 71 21.8 85 85 ENE 3 6 29.98 1015 10 16 0.00 0.00
6:55 am 06:55 Cloudy 76 24.3 69 20.7 80 80 ENE 6 9 29.99 1016 10 16 0.00 0.00
7:15 am 07:15 Cloudy 74 23.2 66 18.9 77 77 E 8 13 29.99 1015 10 16 0.00 0.00
7:35 am 07:35 Cloudy 74 23.3 66 18.8 76 76 ESE 3 6 29.97 1015 10 16 0.00 0.00
7:55 am 07:55 Mostly Cloudy 75 24.1 67 19.4 75 75 SE 5 7 29.96 1015 10 16 0.00 0.00
8:15 am 08:15 Mostly Cloudy 76 24.7 68 20 75 75 SSE 5 7 29.95 1014 10 16 0.00 0.00
8:35 am 08:35 Partly Cloudy 78 25.5 69 20.6 74 74 S 8 13 29.95 1014 10 16 0.00 0.00
8:55 am 08:55 Partly Cloudy 80 26.8 71 21.6 73 73 S 7 11 29.94 1014 10 16 0.00 0.00
9:15 am 09:15 Partly Cloudy 82 28 73 22.6 73 73 SSW 10 17 29.94 1014 10 16 0.00 0.00
9:35 am 09:35 Partly Cloudy 83 28.3 73 23 73 73 SW 7 11 29.93 1014 10 16 0.00 0.00
9:50 am 09:50 Partly Cloudy 84 29 74 23.1 71 71 SW 8 13 29.93 1013 10 16 0.00 0.00
10:15 am 10:15 Mostly Cloudy 85 29.6 74 23.1 68 68 WSW 8 13 29.93 1013 10 16 0.00 0.00
10:35 am 10:35 Partly Cloudy 87 30.4 74 23.6 67 67 SW 8 13 29.92 1013 10 16 0.00 0.00
10:55 am 10:55 Mostly Cloudy 87 30.6 74 23.4 65 65 WSW 8 13 29.92 1013 10 16 0.00 0.00
11:15 am 11:15 Cloudy 87 30.8 74 23.2 64 64 WSW 8 13 29.92 1013 10 16 0.00 0.00
11:35 am 11:35 Mostly Cloudy 90 32 74 23.4 60 60 SW 8 13 29.92 1013 10 16 0.00 0.00
11:55 am 11:55 Partly Cloudy 91 32.5 74 23.6 59 59 SW 10 17 29.92 1013 10 16 0.00 0.00
12:15 pm 12:15 Partly Cloudy 91 33 74 23.5 57 57 WSW 10 17 29.92 1013 10 16 0.00 0.00
12:35 pm 12:35 Partly Cloudy 92 33.3 74 23.5 56 56 WSW 10 17 29.91 1013 10 16 0.00 0.00
12:55 pm 12:55 Partly Cloudy 92 33.5 74 23.1 54 54 W 10 17 29.91 1013 10 16 0.00 0.00
1:15 pm 13:15 Partly Cloudy 93 34 74 23.5 54 54 W 12 19 29.90 1013 10 16 0.00 0.00
1:35 pm 13:35 Sunny 93 34.1 74 23.2 53 53 W 8 13 29.90 1013 10 16 0.00 0.00
1:55 pm 13:55 Partly Cloudy 95 34.9 74 23.2 51 51 WSW 10 17 29.89 1012 10 16 0.00 0.00
2:15 pm 14:15 Mostly Cloudy 95 35.2 73 22.9 49 49 W 12 19 29.88 1012 10 16 0.00 0.00
2:35 pm 14:35 Mostly Cloudy 95 35.2 73 22.9 49 49 WSW 12 19 29.87 1011 10 16 0.00 0.00
2:55 pm 14:55 Mostly Cloudy 95 34.8 73 22.7 49 49 W 13 20 29.86 1011 10 16 0.00 0.00
3:15 pm 15:15 Mostly Cloudy 95 35.2 71 21.7 45 45 W 12 19 29.86 1011 10 16 0.00 0.00
3:35 pm 15:35 Mostly Cloudy 94 34.3 72 22.2 49 49 WNW 10 17 29.85 1011 10 16 0.00 0.00
3:55 pm 15:55 Mostly Cloudy 96 35.3 72 22.1 46 46 W 13 20 29.85 1011 10 16 0.00 0.00
4:15 pm 16:15 Partly Cloudy 96 35.5 72 22.4 47 47 W 10 17 29.84 1010 10 16 0.00 0.00
4:35 pm 16:35 Partly Cloudy 96 35.5 72 22 45 45 WSW 13 20 29.84 1010 10 16 0.00 0.00
4:55 pm 16:55 Sunny 96 35.6 71 21.6 44 44 W 10 17 29.84 1010 10 16 0.00 0.00
5:15 pm 17:15 Partly Cloudy 97 35.9 71 21.6 43 43 WSW 13 20 29.84 1010 10 16 0.00 0.00
5:35 pm 17:35 Mostly Cloudy 95 34.9 71 21.4 45 45 W 9 15 29.84 1010 10 16 0.00 0.00
5:55 pm 17:55 Mostly Cloudy 97 35.9 70 21.1 42 42 WSW 12 19 29.84 1010 10 16 0.00 0.00
6:15 pm 18:15 Partly Cloudy 95 35.2 71 21.6 45 45 W 10 17 29.84 1010 10 16 0.00 0.00
6:35 pm 18:35 Partly Cloudy 95 34.8 71 21.9 47 47 WSW 10 17 29.84 1010 10 16 0.00 0.00
6:55 pm 18:55 Sunny 94 34.7 71 21.8 47 47 WSW 10 17 29.83 1010 10 16 0.00 0.00
7:15 pm 19:15 Sunny 94 34.5 69 20.6 44 44 WSW 13 20 29.82 1010 10 16 0.00 0.00
7:35 pm 19:35 Sunny 93 34 70 21.2 47 47 WSW 8 13 29.82 1010 10 16 0.00 0.00
7:55 pm 19:55 Sunny 92 33.6 71 21.6 49 49 WSW 9 15 29.81 1010 10 16 0.00 0.00
8:15 pm 20:15 Sunny 92 33.1 71 21.7 51 51 WSW 8 13 29.81 1010 10 16 0.00 0.00
8:35 pm 20:35 Sunny 91 32.5 72 22 54 54 WSW 7 11 29.81 1009 10 16 0.00 0.00
8:55 pm 20:55 Sunny 89 31.9 72 22.2 56 56 WSW 5 7 29.82 1010 10 16 0.00 0.00
9:15 pm 21:15 Sunny 88 31.1 73 22.5 60 60 WSW 5 7 29.82 1010 10 16 0.00 0.00
9:35 pm 21:35 Clear 87 30.6 73 22.6 62 62 WSW 6 9 29.83 1010 10 16 0.00 0.00
9:55 pm 21:55 Clear 85 29.4 73 22.7 67 67 SW 6 9 29.85 1011 10 16 0.00 0.00
10:15 pm 22:15 Clear 85 29.5 73 22.5 66 66 SW 5 7 29.86 1011 10 16 0.00 0.00
10:35 pm 22:35 Clear 84 28.9 73 22.5 68 68 SW 6 9 29.86 1011 10 16 0.00 0.00
10:55 pm 22:55 Clear 84 28.8 73 22.5 69 69 WSW 5 7 29.87 1011 10 16 0.00 0.00
11:15 pm 23:15 Clear 83 28.3 73 22.7 72 72 SW 6 9 29.87 1011 10 16 0.00 0.00
11:35 pm 23:35 Clear 84 28.8 74 23.1 71 71 WSW 8 13 29.87 1011 10 16 0.00 0.00
11:55 pm 23:55 Clear 85 29.2 74 23.3 71 71 WSW 8 13 29.85 1011 10 16 0.00 0.00

Powered by AerisWeather